カタログに戻る

USA 67

運用中軍事GEO
NORAD 20963·PAYLOAD·🇺🇸 United States

打ち上げ Nov 15, 1990 から Cape Canaveral Space Force Station

Loading…

TLE

最新Source: Mike McCants

元期: Sep 15, 2026, 02:19 UTC

1 20963U 90097B   26258.09700263  .00000000  00000-0  00000-0 0    08
2 20963  13.9199 333.9155 0017101 293.9872  65.8459  0.98582041 16611

AllMySatでUSA 67をリアルタイム追跡

Download on the App Store